This is the latest recevied weather packets stored in our database for station/object KC9NPJ-13. If no packets are shown the sender has not sent any weather packets the latest 10 day(s).
| Time | Temp. | Humidity | Pressure | Rain* | Wind** | Luminosity | Snow |
|---|---|---|---|---|---|---|---|
| 1778042338 | 7.22° C | 94% | 1011.8 hPa | 4.32 mm | - | - | - |
| 1778042038 | 7.22° C | 94% | 1011.6 hPa | 4.06 mm | - | - | - |
| 1778041738 | 7.22° C | 94% | 1012.1 hPa | 3.81 mm | - | - | - |
| 1778041438 | 7.22° C | 94% | 1011.9 hPa | 3.56 mm | - | - | - |
| 1778041138 | 7.78° C | 94% | 1012.1 hPa | 3.05 mm | - | - | - |
| 1778040838 | 7.78° C | 94% | 1012.1 hPa | 2.79 mm | - | - | - |
| 1778040540 | 7.78° C | 94% | 1012.1 hPa | 2.79 mm | - | - | - |
| 1778040239 | 7.78° C | 94% | 1011.8 hPa | 2.54 mm | - | - | - |
| 1778039938 | 7.78° C | 94% | 1011.7 hPa | 2.54 mm | - | - | - |
| 1778039638 | 7.78° C | 94% | 1011.8 hPa | 2.03 mm | - | - | - |
| 1778039338 | 7.78° C | 94% | 1011.6 hPa | 1.52 mm | - | - | - |
| 1778039038 | 7.78° C | 94% | 1011.7 hPa | 1.78 mm | - | - | - |
| 1778038739 | 8.33° C | 95% | 1011 hPa | 2.03 mm | - | - | - |
| 1778038439 | 8.33° C | 95% | 1011.3 hPa | 2.29 mm | - | - | - |
| 1778038139 | 8.33° C | 95% | 1011.7 hPa | 2.79 mm | - | - | - |
| 1778037839 | 8.33° C | 95% | 1011.6 hPa | 3.81 mm | - | - | - |
| 1778037539 | 8.89° C | 96% | 1011.3 hPa | 5.59 mm | - | - | - |
| 1778037239 | 8.89° C | 95% | 1011.3 hPa | 7.37 mm | - | - | - |
| 1778036939 | 8.89° C | 95% | 1011.3 hPa | 7.62 mm | - | - | - |
| 1778036639 | 8.89° C | 95% | 1011.4 hPa | 7.62 mm | - | - | - |
| 1778036339 | 8.33° C | 95% | 1011.9 hPa | 7.62 mm | - | - | - |
| 1778036039 | 8.33° C | 95% | 1012 hPa | 7.87 mm | - | - | - |
| 1778035739 | 8.33° C | 95% | 1011.4 hPa | 8.13 mm | - | - | - |
| 1778035439 | 8.33° C | 95% | 1011.2 hPa | 9.14 mm | - | - | - |
| 1778035139 | 8.33° C | 95% | 1011.4 hPa | 9.65 mm | - | - | - |
* Rain latest hour (hover to see other rain measurements)
** Current wind speed in m/s (hover to see current wind gust speed)